[[{"header":{"parameterUnit":"m.s-1","parameterCategory":1,"la1":30.2991,"la2":30.254,"lo1":-89.0895,"lo2":-89.0444,"dy":0.0017,"dx":0.0017,"nx":28,"ny":28,"refTime":"2024-04-16T21:00:00:Z","depth":0,"parameterNumber":2,"parameterNumberName":"U-component_of_WINDS"},"data":[0,0,0,0,0,0,0,0,0,0,0,0,0,0,0,0,0,0,0,0,0,0,0,0,0,0,0,0,0,0,0,0,0,0,0,0,0,0,0,0,0,0,0,0,0,0,0,0,0,0,0,0,0,0,0,0,0,0,-3.3118,-3.3119,0,-3.3215,-3.3216,-3.3217,-3.3224,-3.3223,-3.3222,-3.3221,-3.3322,-3.3325,-3.3329,0,0,0,0,0,0,0,0,0,0,0,0,0,-3.2938,-3.2942,-3.3118,-3.3119,-3.312,-3.3215,-3.3216,-3.3218,-3.3224,-3.3223,-3.3221,-3.322,-3.332,-3.3325,-3.3329,0,0,0,0,0,0,0,0,0,0,0,0,0,-3.3024,-3.2943,-3.3117,-3.3135,-3.3137,-3.3215,-3.3216,-3.3218,-3.3224,-3.3223,-3.3221,-3.322,-3.3319,-3.3324,-3.333,-3.3397,0,0,-3.3347,-3.3349,0,0,0,0,0,0,0,0,-3.3019,-3.3031,-3.3131,-3.3134,-3.3137,-3.3206,-3.319,-3.3278,-3.3225,-3.3191,-3.3221,-3.3219,-3.3284,-3.3293,-3.3315,-3.3402,-3.3406,-3.3347,-3.3351,-3.3353,-3.3355,0,0,0,0,0,0,0,-3.3013,-3.3027,-3.3156,-3.3132,-3.3136,-3.3138,-3.3148,-3.3207,-3.3246,-3.3194,-3.3195,-3.3206,-3.3286,-3.3309,-3.3317,-3.3408,-3.3347,-3.3352,-3.3355,-3.3358,-3.3556,-3.3557,0,0,0,0,0,0,-3.3004,-3.3022,-3.3153,-3.3159,-3.3073,-3.3143,-3.3154,-3.3185,-3.3245,-3.3253,-3.3208,-3.3206,-3.3301,-3.3311,-3.3321,-3.3403,-3.3353,-3.3358,-3.3361,-3.3554,-3.3556,-3.3558,0,0,0,0,0,0,-3.3,-3.3016,-3.3149,-3.3091,-3.3108,-3.3148,-3.3182,-3.3188,-3.3212,-3.3255,-3.3263,-3.3224,-3.33,-3.3313,-3.3378,-3.3407,-3.3361,-3.3366,-3.3551,-3.3554,-3.3557,-3.3569,0,0,0,0,0,0,-3.2995,-3.3014,-3.3039,-3.3091,-3.3111,-3.3204,-3.3184,-3.3191,-3.3221,-3.322,-3.3273,-3.328,-3.3299,-3.337,-3.3384,-3.3413,-3.337,-3.3549,-3.3553,-3.3556,-3.3566,-3.3571,-3.3576,0,0,0,0,0,-3.2988,-3.3039,-3.3041,-3.3057,-3.3143,-3.3206,-3.3217,-3.3238,-3.3223,-3.3249,-3.3278,-3.3279,-3.3402,-3.3376,-3.3392,-3.3424,-3.3547,-3.3552,-3.3556,-3.3563,-3.357,-3.3576,0,0,0,0,0,0,-3.299,-3.3046,-3.3049,-3.3117,-3.3157,-3.3207,-3.324,-3.3245,-3.3289,-3.3287,-3.3311,-3.3323,-3.3387,-3.3413,-3.3383,-3.3493,-3.3473,-3.3481,-3.3473,-3.348,-3.3485,-3.3477,-3.3375,0,0,0,0,0,-3.2998,-3.3044,-3.3091,-3.3147,-3.3167,-3.32,-3.3228,-3.3241,-3.3283,-3.33,-3.3333,-3.3374,-3.3422,-3.3453,-3.3499,-3.357,-3.3582,-3.36,-3.3605,-3.361,-3.3615,-3.3655,-3.3663,-3.3572,-3.3572,-3.3572,0,0,-3.3015,-3.3052,-3.3079,-3.3148,-3.318,-3.3227,-3.3214,-3.3264,-3.33,-3.3307,-3.337,-3.3397,-3.3444,-3.3513,-3.3544,-3.3536,-3.3644,-3.3615,-3.3618,-3.3622,-3.366,-3.3669,-3.3676,-3.3575,-3.3575,-3.3574,0,0,-3.3071,-3.3103,-3.3153,-3.3186,-3.3235,-3.3257,-3.3269,-3.332,-3.3337,-3.3401,-3.3408,-3.3451,-3.3533,-3.3567,-3.3594,-3.3665,-3.3667,-3.3679,-3.3706,-3.3744,-3.3752,-3.3758,-3.3782,-3.3791,-3.3685,-3.3685,-3.3685,0,-3.3086,-3.3157,-3.3179,-3.3229,-3.3259,-3.3269,-3.332,-3.3351,-3.3413,-3.3434,-3.3423,-3.3527,-3.356,-3.3636,-3.3653,-3.3676,-3.369,-3.3672,-3.3749,-3.3755,-3.3762,-3.3785,-3.3794,-3.3687,-3.3686,-3.3686,-3.3686,0,-3.3173,-3.3222,-3.3257,-3.3316,-3.3351,-3.3401,-3.3431,-3.3464,-3.3474,-3.3498,-3.3563,-3.3603,-3.3658,-3.3678,-3.3688,-3.3756,-3.3749,-3.3744,-3.3724,-3.3771,-3.3793,-3.3803,-3.3688,-3.3688,-3.3687,-3.3687,0,0,-3.323,-3.3302,-3.3314,-3.3341,-3.3396,-3.3435,-3.3487,-3.354,-3.3567,-3.361,-3.3654,-3.3724,-3.372,-3.3752,-3.3766,-3.38,-3.3853,-3.3791,-3.3792,-3.38,-3.3929,-3.3932,-3.3942,-3.3855,-3.3857,-3.3859,-3.3925,0,-3.3291,-3.3382,-3.3404,-3.3482,-3.3527,-3.3538,-3.3583,-3.3623,-3.3647,-3.369,-3.3717,-3.3765,-3.3756,-3.3775,-3.3809,-3.3839,-3.3879,-3.3835,-3.3896,-3.3898,-3.3882,-3.3953,-3.3956,-3.4016,-3.3934,-3.3935,-3.3936,0,-3.3373,-3.3418,-3.35,-3.355,-3.357,-3.361,-3.3661,-3.3702,-3.3747,-3.3762,-3.3799,-3.381,-3.3865,-3.3844,-3.392,-3.389,-3.3917,-3.3935,-3.3938,-3.3943,-3.3919,-3.3959,-3.4036,-3.4045,-3.3951,-3.3949,-3.3948,0,-3.3405,-3.3486,-3.3546,-3.3569,-3.3629,-3.3656,-3.3683,-3.3726,-3.3758,-3.3803,-3.3823,-3.3875,-3.3903,-3.3942,-3.3968,-3.3951,-3.4042,-3.4023,-3.4056,-3.4055,-3.4073,-3.4071,-3.4154,-3.4093,-3.4093,-3.4093,-3.4092,0,-3.347,-3.352,-3.3561,-3.3597,-3.3654,-3.3679,-3.3735,-3.3762,-3.3801,-3.3843,-3.3857,-3.3896,-3.3928,-3.3973,-3.3994,-3.4053,-3.4066,-3.408,-3.4084,-3.4078,-3.4076,-3.4094,-3.409,-3.4095,-3.4094,-3.4094,-3.4094,0,-3.3514,-3.3544,-3.361,-3.3661,-3.3676,-3.3715,-3.3759,-3.3796,-3.3821,-3.3874,-3.3888,-3.3928,-3.3981,-3.4011,-3.4078,-3.4092,-3.4158,-3.4161,-3.4142,-3.4144,-3.4175,-3.4171,-3.4271,-3.4285,-3.4216,-3.4216,-3.4217,0,-3.3553,-3.3591,-3.3647,-3.3676,-3.3703,-3.375,-3.3782,-3.3809,-3.3842,-3.3897,-3.3927,-3.398,-3.4025,-3.4109,-3.4144,-3.4196,-3.42,-3.4231,-3.4207,-3.4199,-3.4199,-3.4195,-3.4199,-3.4235,-3.4235,-3.4236,-3.4236,0,-3.3618,-3.3631,-3.3675,-3.3726,-3.3763,-3.3805,-3.3846,-3.3869,-3.3903,-3.394,-3.3994,-3.4028,-3.4097,-3.415,-3.4205,-3.4233,-3.424,-3.4244,-3.4254,-3.4246,-3.4233,-3.424,-3.4152,-3.4241,-3.424,-3.424,-3.424,-3.424,-3.366,-3.3694,-3.3739,-3.3789,-3.3823,-3.3861,-3.3897,-3.3927,-3.3973,-3.403,-3.4044,-3.4101,-3.4146,-3.422,-3.425,-3.4295,-3.429,-3.4305,-3.4308,-3.4311,-3.4311,-3.4227,-3.4306,-3.4306,-3.4306,-3.4305,-3.4305,0,-3.3724,-3.3754,-3.3799,-3.3856,-3.3895,-3.39,-3.3946,-3.3978,-3.4028,-3.407,-3.4113,-3.4176,-3.4228,-3.4267,-3.4321,-3.435,-3.4355,-3.4363,-3.436,-3.4366,-3.4314,-3.4299,-3.4358,-3.4358,-3.4358,-3.4358,-3.4358,-3.4358,-3.3762,-3.3821,-3.3839,-3.3915,-3.3945,-3.4,-3.4026,-3.4062,-3.4095,-3.4164,-3.4207,-3.4233,-3.4274,-3.4331,-3.4379,-3.4389,-3.4408,-3.4415,-3.4426,-3.4376,-3.437,-3.4365,-3.4351,-3.442,-3.442,-3.4475,-3.4475,-3.4476]},{"header":{"parameterUnit":"m.s-1","parameterCategory":1,"la1":30.2991,"la2":30.254,"lo1":-89.0895,"lo2":-89.0444,"dy":0.0017,"dx":0.0017,"nx":28,"ny":28,"refTime":"2024-04-16T21:00:00:Z","depth":0,"parameterNumber":3,"parameterNumberName":"V-component_of_WINDS"},"data":[0,0,0,0,0,0,0,0,0,0,0,0,0,0,0,0,0,0,0,0,0,0,0,0,0,0,0,0,0,0,0,0,0,0,0,0,0,0,0,0,0,0,0,0,0,0,0,0,0,0,0,0,0,0,0,0,0,0,4.561,4.5611,0,4.57,4.5701,4.5702,4.5685,4.5683,4.5681,4.568,4.5767,4.5771,4.5775,0,0,0,0,0,0,0,0,0,0,0,0,0,4.5421,4.5425,4.561,4.5611,4.5613,4.57,4.5701,4.5702,4.5685,4.5683,4.5681,4.5679,4.5766,4.5771,4.5775,0,0,0,0,0,0,0,0,0,0,0,0,0,4.5506,4.5426,4.561,4.5615,4.5616,4.57,4.5701,4.5703,4.5685,4.5683,4.5681,4.5678,4.5765,4.577,4.5776,4.5859,0,0,4.5793,4.5796,0,0,0,0,0,0,0,0,4.5501,4.5513,4.5613,4.5614,4.5616,4.5679,4.5666,4.5755,4.5686,4.5659,4.568,4.5677,4.574,4.5747,4.5769,4.5863,4.5867,4.5794,4.5797,4.58,4.5801,0,0,0,0,0,0,0,4.5495,4.5509,4.5646,4.5614,4.5616,4.5611,4.562,4.5683,4.5711,4.5661,4.566,4.5671,4.574,4.5764,4.5771,4.5869,4.5794,4.5799,4.5802,4.5805,4.6038,4.604,0,0,0,0,0,0,4.5489,4.5504,4.5643,4.5648,4.5552,4.5616,4.5627,4.5661,4.5711,4.5716,4.5673,4.567,4.5755,4.5764,4.5774,4.5877,4.58,4.5805,4.5808,4.6035,4.6038,4.6041,0,0,0,0,0,0,4.5485,4.5501,4.5639,4.5576,4.5593,4.5622,4.5661,4.5664,4.5688,4.572,4.5724,4.5692,4.5754,4.5766,4.5839,4.588,4.5808,4.5813,4.6032,4.6036,4.604,4.6082,0,0,0,0,0,0,4.5479,4.55,4.5532,4.5577,4.5597,4.5704,4.5663,4.5668,4.5698,4.5695,4.5739,4.5744,4.5753,4.5831,4.5845,4.5886,4.5817,4.6028,4.6034,4.6038,4.6077,4.6087,4.6096,0,0,0,0,0,4.5473,4.5539,4.5534,4.5551,4.5639,4.5706,4.5717,4.5727,4.5702,4.5735,4.5755,4.5743,4.5873,4.5838,4.5854,4.5898,4.6026,4.6032,4.6038,4.6073,4.6085,4.6095,0,0,0,0,0,0,4.5497,4.5545,4.554,4.5624,4.5661,4.5703,4.5745,4.5739,4.5783,4.5778,4.5787,4.5797,4.5872,4.5892,4.5853,4.5982,4.5945,4.5955,4.5967,4.5978,4.5987,4.5981,4.5822,0,0,0,0,0,4.5512,4.5564,4.5603,4.5673,4.5692,4.5716,4.5745,4.575,4.5788,4.5804,4.583,4.5866,4.5916,4.5948,4.5995,4.608,4.609,4.6117,4.6127,4.6134,4.6143,4.6191,4.6204,4.6062,4.6062,4.6061,0,0,4.5544,4.5577,4.5609,4.5679,4.5708,4.5762,4.5729,4.5786,4.5825,4.5812,4.5883,4.5904,4.5945,4.6025,4.6062,4.6044,4.6184,4.6142,4.6148,4.6152,4.6198,4.6212,4.6224,4.6066,4.6065,4.6064,0,0,4.5629,4.5659,4.5722,4.5753,4.5799,4.5814,4.5829,4.5872,4.5886,4.5959,4.595,4.5996,4.608,4.6111,4.6138,4.6237,4.6227,4.6252,4.63,4.6347,4.6358,4.6368,4.6405,4.6417,4.626,4.626,4.626,0,4.5662,4.5744,4.5754,4.5813,4.5845,4.5836,4.59,4.5929,4.5987,4.6009,4.5988,4.6096,4.6123,4.6211,4.6235,4.6257,4.6274,4.6247,4.6356,4.6366,4.6375,4.641,4.6424,4.6263,4.6262,4.6262,4.6262,0,4.5783,4.5839,4.5884,4.5944,4.598,4.604,4.6059,4.6095,4.6096,4.6113,4.6187,4.622,4.6275,4.6295,4.6296,4.6384,4.6372,4.6354,4.6317,4.6391,4.6425,4.6438,4.6267,4.6266,4.6265,4.6264,0,0,4.5886,4.5952,4.5968,4.5996,4.6047,4.609,4.615,4.6205,4.6236,4.6276,4.6328,4.64,4.6384,4.6415,4.6419,4.646,4.6538,4.6436,4.6438,4.6455,4.6638,4.6653,4.6668,4.6532,4.6534,4.6536,4.6635,0,4.5977,4.6086,4.6098,4.6195,4.6248,4.6241,4.6294,4.6331,4.6348,4.6395,4.6413,4.6466,4.644,4.6459,4.6499,4.652,4.6575,4.6513,4.6579,4.6582,4.6571,4.6685,4.6701,4.6792,4.6648,4.665,4.6652,0,4.6099,4.6146,4.6248,4.6294,4.6316,4.6364,4.6416,4.6461,4.6502,4.6512,4.6547,4.6547,4.6608,4.6569,4.6655,4.6613,4.664,4.6655,4.6659,4.6666,4.6622,4.6697,4.6822,4.6836,4.6672,4.667,4.6669,0,4.6166,4.6254,4.6328,4.6351,4.6405,4.6439,4.6463,4.6502,4.6535,4.658,4.6602,4.6653,4.6681,4.672,4.6733,4.6703,4.6819,4.678,4.6829,4.6829,4.6854,4.6853,4.6987,4.687,4.687,4.6869,4.6869,0,4.6268,4.6331,4.6359,4.6404,4.6475,4.6488,4.6557,4.6579,4.6614,4.6664,4.666,4.6706,4.672,4.6768,4.6778,4.6848,4.686,4.687,4.6872,4.6872,4.6871,4.6891,4.6885,4.6873,4.6872,4.6872,4.6871,0,4.6355,4.6376,4.6456,4.6502,4.6515,4.6565,4.6604,4.6647,4.6665,4.6727,4.6742,4.6769,4.6826,4.6843,4.691,4.6917,4.7,4.6995,4.6987,4.6987,4.7036,4.7032,4.7189,4.721,4.7078,4.7079,4.708,0,4.6419,4.6468,4.652,4.6554,4.658,4.6633,4.6668,4.6682,4.6717,4.6769,4.6807,4.6863,4.6909,4.7,4.7025,4.7077,4.7074,4.7126,4.7082,4.708,4.7077,4.7075,4.708,4.7134,4.7136,4.7137,4.7138,0,4.6532,4.654,4.6591,4.6646,4.6687,4.6731,4.6772,4.6799,4.6819,4.6859,4.6919,4.6955,4.7025,4.7081,4.7134,4.7157,4.7151,4.7151,4.7166,4.7166,4.716,4.7166,4.7011,4.7148,4.7147,4.7146,4.7145,4.7145,4.6611,4.6655,4.6699,4.6756,4.6789,4.6829,4.6873,4.6896,4.6946,4.7006,4.7011,4.7075,4.7116,4.7187,4.7213,4.7263,4.7248,4.7268,4.7273,4.7279,4.7284,4.7151,4.7272,4.7272,4.7271,4.7271,4.7271,0,4.6725,4.6753,4.6805,4.6865,4.691,4.6902,4.6947,4.6985,4.7043,4.7082,4.7128,4.7197,4.7251,4.7281,4.7336,4.737,4.7369,4.7384,4.7383,4.7389,4.7293,4.7276,4.7385,4.7385,4.7385,4.7385,4.7385,4.7385,4.679,4.6865,4.6879,4.697,4.6998,4.7062,4.7089,4.7126,4.7158,4.7235,4.7281,4.7301,4.7337,4.7394,4.7444,4.7452,4.7473,4.749,4.7496,4.7406,4.7395,4.7384,4.7368,4.7494,4.7494,4.7587,4.7588,4.7589]}]]